Temp
-17 -17 -16 -16 -15 -16 -15 -14 -13 -12 -13 -13 -12 -12 -12 -12 -11 -11 -11 -11 -10 -10 -10 -10 -9 -9 -9 -10 -10 -10 -10 -10 -10 -10 -10 -10 -10 -10 -10 -10 -10 -10 -10
-19 -18 -18 -17 -16 -16 -16 -15 -14 -13 -12 -13 -13 -12 -12 -12 -12 -12 -12 -11 -10 -11 -10 -10 -10 -9 -9 -10 -10 -10 -10 -10 -10 -10 -10 -10 -10 -10 -10 -10 -10 -10 -10
-19 -19 -19 -18 -17 -16 -16 -16 -15 -14 -13 -13 -13 -12 -12 -12 -12 -12 -12 -11 -11 -11 -11 -11 -11 -10 -10 -10 -10 -10 -10 -10 -11 -10 -10 -10 -10 -10 -10 -10 -10 -10 -10
-20 -19 -19 -19 -18 -17 -17 -16 -15 -15 -14 -13 -13 -13 -11 -12 -12 -13 -12 -12 -11 -12 -11 -11 -10 -10 -10 -10 -10 -10 -10 -10 -10 -11 -10 -10 -10 -10 -10 -10 -10 -10 -10
-21 -20 -19 -19 -18 -18 -17 -17 -16 -15 -14 -14 -13 -13 -13 -12 -12 -12 -12 -12 -12 -12 -11 -11 -11 -10 -10 -10 -10 -10 -10 -10 -10 -10 -10 -11 -10 -11 -10 -10 -10 -11 -10
-22 -21 -20 -20 -19 -19 -18 -18 -17 -15 -15 -14 -14 -14 -14 -13 -12 -12 -12 -12 -12 -12 -12 -12 -11 -11 -11 -10 -10 -10 -10 -10 -10 -10 -10 -10 -11 -11 -11 -10 -10 -10 -10
-23 -22 -21 -20 -20 -19 -19 -18 -18 -16 -15 -15 -15 -14 -14 -13 -13 -12 -12 -12 -12 -13 -12 -13 -12 -11 -11 -10 -11 -11 -10 -11 -11 -11 -10 -11 -11 -11 -11 -10 -10 -10 -10
-23 -23 -22 -21 -20 -19 -19 -19 -18 -17 -16 -15 -15 -15 -14 -13 -13 -12 -12 -12 -12 -13 -12 -12 -13 -12 -11 -11 -11 -10 -10 -11 -11 -11 -10 -10 -10 -12 -11 -11 -11 -11 -10
-24 -23 -22 -21 -21 -20 -19 -19 -19 -18 -17 -16 -15 -15 -15 -14 -12 -13 -13 -13 -12 -12 -12 -12 -12 -12 -12 -11 -12 -11 -10 -10 -10 -10 -10 -10 -11 -12 -11 -11 -11 -11 -11
-25 -24 -23 -22 -22 -20 -19 -19 -19 -18 -17 -17 -16 -15 -15 -15 -14 -14 -14 -13 -13 -13 -12 -12 -12 -12 -12 -12 -12 -11 -11 -10 -10 -11 -10 -11 -10 -12 -13 -11 -11 -11 -12
-26 -24 -24 -24 -23 -21 -20 -19 -19 -19 -18 -18 -17 -16 -16 -15 -14 -13 -13 -13 -13 -12 -13 -13 -12 -12 -13 -12 -12 -12 -11 -11 -12 -11 -11 -11 -10 -13 -12 -11 -12 -13 -12
-27 -26 -24 -24 -24 -22 -21 -20 -19 -19 -18 -18 -18 -17 -16 -16 -15 -14 -12 -14 -13 -13 -13 -13 -11 -11 -12 -12 -12 -11 -12 -11 -12 -12 -11 -11 -11 -14 -13 -13 -14 -12 -12
-27 -27 -25 -24 -24 -23 -22 -21 -20 -19 -18 -18 -18 -18 -17 -16 -16 -15 -14 -14 -14 -14 -14 -13 -11 -13 -12 -12 -12 -12 -11 -11 -12 -12 -11 -11 -11 -14 -14 -14 -13 -12 -12
-28 -27 -27 -25 -24 -23 -22 -21 -21 -19 -19 -18 -18 -18 -18 -17 -17 -16 -16 -16 -13 -14 -14 -14 -13 -13 -12 -11 -12 -12 -11 -11 -11 -12 -11 -12 -12 -13 -14 -13 -13 -12 -12
-28 -27 -27 -26 -24 -23 -23 -21 -21 -20 -19 -18 -18 -18 -18 -18 -18 -16 -16 -17 -15 -15 -13 -14 -14 -13 -12 -13 -12 -12 -12 -12 -12 -12 -12 -12 -13 -13 -13 -13 -12 -12 -12
-28 -28 -27 -26 -25 -23 -22 -21 -20 -20 -20 -19 -19 -18 -18 -18 -18 -18 -17 -17 -16 -16 -15 -14 -14 -13 -13 -12 -12 -12 -12 -13 -12 -12 -12 -12 -13 -13 -13 -13 -12 -12 -12
-28 -28 -27 -27 -25 -23 -22 -21 -21 -21 -20 -21 -19 -19 -19 -18 -18 -17 -17 -17 -17 -16 -15 -14 -13 -14 -14 -14 -11 -12 -12 -12 -13 -13 -12 -12 -12 -13 -13 -13 -13 -13 -13
-28 -28 -27 -27 -26 -24 -23 -22 -21 -21 -21 -21 -20 -20 -20 -20 -19 -18 -17 -16 -16 -16 -16 -15 -14 -14 -13 -14 -13 -11 -13 -12 -12 -13 -13 -12 -12 -12 -13 -13 -13 -13 -13
-28 -27 -27 -27 -26 -25 -24 -23 -22 -21 -21 -21 -20 -20 -20 -20 -20 -18 -17 -16 -15 -15 -15 -15 -15 -13 -14 -14 -13 -13 -13 -12 -13 -13 -13 -13 -13 -13 -13 -13 -13 -13 -13
-29 -28 -27 -27 -26 -26 -25 -24 -22 -22 -21 -21 -20 -20 -20 -19 -19 -19 -17 -16 -15 -16 -15 -14 -15 -15 -14 -14 -14 -14 -14 -13 -12 -13 -13 -13 -13 -13 -13 -13 -12 -12 -12
-29 -28 -28 -27 -26 -26 -25 -24 -22 -21 -21 -21 -20 -20 -20 -20 -20 -19 -18 -17 -16 -16 -15 -15 -15 -14 -15 -15 -14 -14 -13 -13 -13 -13 -13 -13 -13 -13 -13 -13 -14 -13 -14
-30 -28 -28 -28 -27 -26 -26 -25 -24 -23 -21 -21 -21 -21 -20 -20 -20 -19 -18 -18 -17 -16 -15 -15 -15 -15 -15 -14 -14 -15 -14 -14 -13 -12 -13 -13 -13 -16 -15 -14 -15 -14 -14
-31 -29 -28 -27 -27 -27 -26 -26 -25 -25 -23 -22 -21 -21 -21 -20 -19 -19 -19 -17 -17 -16 -16 -16 -15 -16 -15 -14 -14 -14 -15 -14 -13 -13 -13 -13 -13 -15 -14 -14 -14 -14 -14
-32 -31 -29 -28 -27 -27 -26 -26 -26 -26 -25 -23 -22 -22 -22 -21 -21 -20 -19 -18 -17 -16 -16 -15 -15 -15 -15 -15 -14 -14 -14 -15 -14 -14 -14 -13 -13 -14 -15 -15 -14 -14 -14
-32 -31 -31 -29 -28 -27 -26 -26 -25 -26 -25 -25 -24 -23 -23 -22 -21 -21 -20 -19 -18 -17 -16 -16 -16 -15 -15 -15 -15 -15 -14 -14 -15 -15 -14 -14 -12 -13 -14 -15 -15 -14 -14
-31 -31 -31 -31 -29 -27 -26 -26 -25 -25 -25 -25 -25 -24 -24 -23 -22 -22 -21 -20 -21 -20 -18 -17 -16 -16 -15 -15 -15 -15 -15 -14 -15 -15 -14 -14 -14 -14 -14 -14 -14 -14 -14
Height
5672 5676 5682 5686 5693 5697 5706 5713 5718 5725 5730 5730 5734 5741 5748 5753 5758 5761 5764 5766 5769 5769 5772 5775 5780 5784 5788 5794 5798 5802 5806 5812 5819 5824 5829 5833 5836 5839 5844 5847 5849 5851 5853
5657 5663 5667 5673 5679 5685 5691 5702 5706 5716 5722 5727 5727 5728 5735 5744 5750 5753 5757 5759 5762 5763 5767 5771 5774 5780 5783 5787 5791 5798 5803 5809 5814 5821 5825 5830 5835 5836 5839 5843 5846 5848 5851
5642 5648 5654 5660 5665 5672 5678 5689 5695 5703 5711 5717 5721 5723 5725 5731 5742 5747 5750 5754 5757 5758 5760 5764 5769 5774 5778 5782 5786 5792 5799 5804 5809 5815 5821 5826 5830 5830 5835 5838 5841 5844 5847
5625 5634 5640 5647 5652 5659 5666 5673 5684 5690 5701 5706 5711 5717 5722 5725 5729 5738 5744 5748 5750 5753 5756 5759 5761 5765 5768 5774 5778 5785 5791 5796 5803 5809 5817 5820 5824 5829 5831 5835 5837 5840 5843
5608 5616 5624 5631 5638 5644 5652 5660 5671 5679 5688 5693 5699 5705 5712 5719 5724 5727 5733 5740 5745 5749 5752 5755 5756 5756 5760 5767 5773 5777 5784 5791 5797 5803 5808 5812 5817 5822 5825 5828 5833 5835 5838
5591 5600 5607 5615 5624 5631 5638 5648 5657 5667 5676 5683 5688 5697 5705 5712 5714 5721 5725 5731 5736 5741 5746 5750 5751 5753 5755 5760 5766 5773 5779 5785 5792 5796 5801 5807 5812 5817 5818 5821 5825 5829 5832
5576 5583 5590 5599 5608 5616 5625 5634 5642 5654 5663 5671 5677 5686 5694 5701 5707 5714 5718 5722 5727 5734 5741 5743 5746 5747 5750 5755 5762 5766 5771 5777 5783 5789 5794 5799 5802 5808 5813 5817 5820 5823 5826
5561 5568 5575 5583 5591 5600 5611 5621 5630 5640 5648 5657 5665 5675 5683 5686 5696 5704 5712 5716 5719 5725 5729 5734 5738 5741 5744 5750 5752 5760 5765 5771 5776 5781 5786 5790 5793 5797 5806 5809 5811 5815 5818
5546 5552 5559 5567 5575 5585 5595 5607 5617 5627 5634 5643 5652 5662 5670 5675 5675 5687 5696 5706 5711 5720 5721 5726 5730 5735 5738 5742 5747 5753 5758 5762 5768 5772 5777 5783 5787 5788 5797 5801 5804 5807 5813
5533 5539 5544 5551 5559 5570 5579 5590 5603 5614 5621 5629 5640 5649 5657 5664 5671 5678 5685 5694 5701 5707 5714 5718 5724 5728 5731 5735 5739 5744 5748 5753 5758 5763 5769 5774 5777 5782 5789 5794 5798 5801 5804
5524 5529 5533 5538 5545 5555 5565 5575 5589 5601 5609 5617 5627 5638 5645 5654 5658 5660 5670 5682 5691 5698 5704 5710 5715 5720 5723 5729 5734 5736 5740 5746 5750 5755 5760 5764 5766 5771 5782 5787 5789 5791 5799
5519 5520 5524 5529 5534 5542 5553 5562 5576 5588 5598 5604 5614 5624 5633 5640 5645 5644 5655 5669 5677 5686 5692 5700 5700 5712 5715 5720 5725 5729 5732 5737 5742 5746 5748 5752 5756 5760 5772 5776 5778 5785 5791
5515 5515 5516 5520 5525 5532 5541 5551 5560 5575 5586 5591 5601 5611 5621 5627 5633 5636 5642 5654 5662 5673 5680 5687 5693 5696 5706 5710 5715 5720 5724 5728 5732 5737 5741 5744 5748 5756 5762 5767 5772 5777 5781
5509 5510 5510 5512 5518 5523 5530 5540 5550 5561 5574 5581 5586 5598 5608 5616 5623 5629 5637 5642 5646 5657 5666 5675 5681 5689 5695 5700 5706 5709 5714 5717 5722 5727 5731 5735 5738 5746 5754 5759 5763 5767 5771
5503 5504 5504 5505 5508 5515 5521 5529 5537 5547 5560 5571 5575 5584 5596 5604 5612 5620 5628 5634 5640 5644 5655 5661 5670 5677 5678 5687 5695 5701 5704 5709 5714 5717 5721 5727 5733 5740 5744 5749 5754 5758 5761
5499 5499 5500 5500 5502 5507 5511 5520 5530 5539 5548 5558 5565 5571 5580 5590 5598 5607 5614 5622 5628 5636 5642 5650 5658 5665 5672 5677 5685 5692 5695 5700 5705 5708 5713 5718 5723 5729 5733 5738 5743 5748 5752
5495 5495 5495 5494 5495 5500 5505 5512 5520 5529 5537 5546 5554 5561 5566 5576 5584 5592 5600 5609 5615 5623 5631 5638 5642 5652 5658 5663 5674 5681 5684 5689 5695 5699 5704 5708 5712 5717 5721 5725 5730 5735 5739
5491 5491 5491 5491 5491 5493 5500 5507 5513 5521 5529 5537 5543 5551 5558 5564 5571 5578 5586 5595 5603 5610 5619 5625 5631 5642 5647 5654 5662 5662 5663 5673 5680 5686 5691 5696 5700 5705 5708 5713 5716 5720 5726
5483 5486 5487 5488 5489 5491 5494 5498 5503 5511 5520 5527 5534 5540 5546 5552 5559 5565 5573 5580 5589 5597 5606 5612 5618 5616 5632 5641 5648 5653 5652 5656 5667 5671 5677 5683 5688 5692 5696 5699 5703 5708 5712
5476 5479 5481 5483 5485 5486 5488 5492 5496 5501 5509 5517 5523 5528 5534 5540 5547 5554 5559 5567 5574 5584 5592 5598 5605 5610 5619 5627 5632 5636 5640 5642 5649 5659 5664 5669 5676 5678 5682 5685 5691 5696 5700
5466 5472 5475 5477 5478 5481 5483 5486 5490 5494 5501 5506 5512 5517 5522 5527 5532 5539 5546 5554 5560 5569 5577 5586 5591 5599 5605 5611 5615 5622 5625 5632 5636 5642 5649 5655 5663 5668 5670 5674 5678 5684 5688
5457 5462 5468 5471 5473 5475 5478 5480 5483 5485 5491 5499 5503 5506 5509 5512 5518 5525 5530 5537 5545 5552 5561 5568 5575 5583 5590 5600 5604 5609 5611 5616 5618 5622 5632 5641 5642 5649 5656 5661 5665 5668 5670
5453 5453 5458 5463 5466 5469 5472 5474 5476 5478 5481 5487 5490 5492 5495 5498 5503 5508 5515 5520 5528 5536 5545 5551 5560 5567 5574 5581 5590 5595 5600 5600 5604 5612 5613 5620 5625 5630 5639 5644 5648 5651 5655
5452 5449 5450 5454 5458 5462 5465 5468 5469 5471 5472 5475 5478 5481 5482 5484 5487 5491 5497 5503 5511 5521 5529 5536 5544 5554 5560 5566 5574 5579 5584 5587 5589 5595 5599 5609 5611 5614 5620 5626 5631 5635 5641
5450 5447 5446 5446 5449 5452 5456 5460 5462 5464 5466 5466 5469 5471 5472 5472 5475 5480 5485 5488 5495 5503 5512 5521 5529 5539 5546 5552 5559 5565 5569 5575 5576 5581 5587 5595 5591 5600 5604 5610 5616 5623 5628
5448 5446 5444 5442 5442 5444 5448 5451 5453 5455 5457 5458 5460 5462 5462 5464 5466 5469 5472 5479 5484 5489 5495 5504 5514 5522 5529 5536 5543 5550 5555 5559 5564 5568 5572 5576 5579 5582 5589 5592 5600 5607 5612
Wind_Speed
55 57 57 60 59 62 56 57 55 47 49 47 43 42 36 37 35 31 28 28 30 39 30 25 43 42 40 36 34 35 36 35 33 35 32 30 29 28 29 27 26 24 23
57 55 56 59 60 62 61 58 59 52 51 48 46 48 42 41 39 37 35 32 29 32 29 29 30 39 43 40 38 37 36 34 35 34 33 31 31 30 32 30 28 27 25
59 56 55 57 60 60 61 59 60 57 49 53 49 52 48 46 41 41 34 34 30 28 36 30 27 43 41 44 41 39 37 38 37 37 35 33 34 36 34 32 31 30 28
61 61 58 59 61 60 61 60 62 59 53 54 56 51 53 47 46 43 39 37 34 29 34 34 39 28 35 51 44 41 40 40 38 39 36 35 38 34 36 34 32 32 31
58 63 65 62 66 63 62 62 61 61 56 56 56 57 53 53 50 49 45 39 36 35 31 32 32 29 19 41 47 43 41 41 39 37 38 39 38 38 37 37 36 34 34
57 62 66 67 67 67 64 65 62 63 60 58 57 57 54 54 54 50 49 45 40 35 31 30 30 39 38 37 50 47 45 45 43 44 43 42 38 39 38 40 39 36 35
56 59 63 65 73 73 67 67 68 64 63 61 59 56 56 57 56 52 51 50 44 38 33 33 29 33 33 34 51 52 49 45 42 42 43 46 46 43 41 39 38 39 37
55 57 59 63 70 78 76 68 69 66 65 64 61 58 60 58 52 53 52 52 47 41 38 39 35 31 30 38 20 48 48 51 49 44 54 47 51 45 44 44 43 41 39
55 56 58 60 63 82 82 73 70 69 66 64 61 59 58 62 51 59 53 54 51 44 42 46 40 35 33 34 38 31 51 50 49 51 52 51 52 47 48 47 45 41 41
39 45 52 58 62 79 87 82 70 72 70 66 61 59 60 59 57 60 55 56 53 52 50 38 42 38 32 33 36 35 32 48 55 56 57 52 54 52 49 46 43 39 41
25 41 43 51 56 74 86 85 75 73 74 69 64 61 58 63 59 51 59 56 56 52 50 36 36 39 34 33 34 32 34 38 35 55 53 52 56 45 47 46 41 46 42
12 26 41 47 56 57 79 84 80 73 76 76 70 64 60 57 58 60 58 49 61 55 54 53 37 44 39 40 37 35 36 35 37 30 36 35 39 44 49 46 55 39 42
12 12 28 42 52 52 68 80 79 80 78 79 77 70 64 61 59 63 63 48 48 57 52 51 56 37 41 39 40 37 37 35 34 35 39 36 38 49 57 55 41 43 42
14 14 12 25 46 53 50 77 75 78 80 84 83 78 68 67 63 61 57 51 43 51 56 53 52 43 39 41 41 40 41 37 35 36 34 39 40 41 44 46 46 44 42
15 17 13 11 30 46 47 57 77 79 84 85 84 81 75 72 70 65 59 52 50 47 52 55 52 49 48 43 47 44 42 42 40 38 38 40 43 45 47 47 45 45 44
18 17 18 13 18 38 45 49 66 74 74 86 87 87 81 77 77 74 64 57 56 54 53 53 56 56 53 57 44 49 46 43 46 43 42 42 44 48 45 42 43 45 45
24 19 18 18 16 30 40 52 50 49 60 67 80 81 75 77 78 76 72 67 65 61 64 58 62 61 55 47 45 45 52 50 46 48 45 46 48 51 53 52 49 45 47
26 25 23 20 19 21 32 42 47 50 48 57 61 66 63 61 73 77 74 67 69 65 60 52 54 62 59 59 58 56 57 58 54 50 48 48 48 50 49 51 49 50 50
27 26 24 22 20 22 28 33 38 44 49 50 53 59 63 63 69 75 75 72 70 69 63 61 56 52 67 63 57 70 63 55 61 58 56 54 51 49 52 52 51 53 53
32 28 24 25 23 22 24 28 36 41 44 46 48 49 55 62 70 76 76 73 74 71 72 72 71 61 63 67 70 68 73 57 61 60 61 58 57 56 53 53 53 52 53
37 31 28 25 26 24 25 27 32 37 45 44 47 47 47 47 53 69 79 78 79 74 75 75 71 70 62 56 74 73 73 65 64 59 64 60 58 59 55 52 54 53 50
34 37 32 28 25 24 24 26 27 32 41 46 49 50 50 50 51 50 67 82 82 80 77 77 76 72 70 64 60 62 71 59 65 63 67 66 66 60 58 57 57 57 54
19 32 36 34 29 24 23 25 28 30 35 39 42 44 49 53 57 57 56 73 84 83 81 80 78 75 70 70 63 60 64 79 62 67 57 58 59 57 56 58 60 59 56
16 15 27 35 38 33 29 25 28 29 31 34 34 35 35 47 50 54 56 63 80 85 82 82 79 75 71 72 72 71 64 75 77 63 49 60 62 59 63 64 66 63 58
15 15 14 24 32 38 34 31 30 31 33 30 29 29 29 36 41 38 30 36 53 72 83 83 79 74 73 71 71 61 61 61 59 56 66 56 63 72 66 66 66 63 60
14 14 13 14 23 31 35 34 33 32 31 33 30 29 27 26 39 46 43 42 40 40 52 69 79 72 71 72 67 63 63 55 58 54 58 62 65 66 65 61 60 58 58
Wind_Direction
244 247 240 237 238 243 243 247 244 228 226 224 220 225 228 228 229 229 236 237 238 238 232 241 213 223 214 210 206 202 203 206 210 205 206 209 207 204 207 209 211 215 217
240 239 242 239 233 238 241 241 246 236 228 228 221 217 221 225 226 228 231 235 237 247 230 230 222 226 228 212 211 205 205 206 209 209 210 210 210 209 209 210 212 216 221
236 237 235 234 237 235 239 236 239 239 233 230 227 225 217 219 223 230 233 238 243 252 235 230 221 229 231 220 213 209 207 209 212 213 212 211 212 211 211 211 214 216 221
235 231 234 226 229 231 234 236 235 235 232 235 230 230 226 221 219 224 231 234 239 244 247 252 250 241 229 224 215 211 211 214 215 213 215 215 217 215 215 213 218 220 221
237 232 229 231 224 227 228 226 231 232 229 234 233 230 228 224 223 221 223 229 233 235 238 248 260 246 247 224 229 219 216 217 217 213 216 211 214 214 217 218 216 219 224
240 234 230 227 224 223 227 225 227 231 229 231 235 233 232 230 225 221 223 225 230 235 239 244 247 256 257 225 217 222 222 220 217 211 217 222 219 217 218 222 221 222 226
240 236 232 229 222 221 223 224 224 228 228 228 233 232 233 230 232 228 223 225 227 232 238 238 242 250 264 219 221 218 215 223 223 220 226 221 219 215 222 226 230 228 229
242 239 235 230 226 218 220 221 220 224 227 227 228 229 231 229 230 229 231 228 226 224 223 228 232 238 248 244 226 223 216 223 221 221 232 234 235 212 220 222 225 229 234
247 244 239 233 228 218 219 217 217 221 226 226 226 225 228 228 221 221 226 230 228 224 225 226 222 226 233 241 245 239 220 220 221 228 231 229 236 215 219 223 225 224 236
243 235 239 233 224 219 220 218 216 216 224 227 225 224 225 228 231 239 227 227 227 230 225 224 225 224 224 225 232 247 233 219 222 230 230 230 238 220 217 224 224 226 235
257 237 240 233 221 220 222 222 213 215 222 227 229 227 225 225 227 229 221 222 226 227 223 223 227 224 226 231 227 229 241 241 238 230 236 231 233 216 224 226 223 229 241
270 250 235 233 229 227 224 224 218 213 219 225 230 228 228 228 229 226 233 225 224 226 231 234 234 230 225 227 230 227 226 236 245 246 231 237 249 213 221 224 227 234 239
266 276 246 234 233 231 226 226 227 216 217 226 226 229 228 230 233 236 230 214 224 222 222 219 222 219 228 231 230 232 233 230 222 232 238 232 240 215 221 231 229 239 241
258 260 256 240 230 229 227 227 230 222 219 225 230 227 228 233 233 236 240 250 211 214 217 219 228 230 236 230 231 230 229 234 229 226 232 232 226 227 231 229 234 240 242
270 259 254 241 232 229 228 223 227 226 223 224 229 229 228 231 236 234 233 238 238 240 217 214 217 226 232 240 230 229 229 232 236 232 230 236 232 230 232 234 236 239 243
261 263 258 243 226 229 233 218 222 229 231 226 230 235 239 233 233 237 235 230 233 236 236 216 219 222 234 225 232 231 228 231 233 236 235 232 238 235 236 237 238 241 244
256 261 264 258 237 234 232 232 223 221 224 229 232 235 240 235 232 234 231 228 231 232 232 227 224 223 227 235 230 238 230 230 233 236 236 230 235 238 239 242 245 247 248
249 254 259 264 252 249 244 244 237 236 233 228 228 233 235 238 237 235 235 231 230 231 232 236 222 229 227 228 229 235 234 232 229 231 235 236 236 236 239 242 244 245 245
244 246 248 255 255 249 248 246 246 240 237 234 234 236 239 241 238 237 235 233 231 231 229 228 227 237 228 229 230 240 240 241 236 232 235 239 240 241 240 242 241 240 245
241 240 249 249 251 252 250 247 241 237 241 242 243 244 245 245 242 237 236 233 233 231 232 236 239 231 229 231 233 231 243 239 241 238 236 239 243 241 240 243 245 247 247
247 238 241 250 250 254 253 248 240 232 233 239 244 245 244 242 240 240 238 236 236 233 233 234 236 238 233 236 236 235 233 249 241 239 236 238 242 244 243 244 250 248 246
254 246 239 241 248 249 254 257 255 246 239 242 246 247 251 250 246 244 242 237 237 237 235 236 237 238 240 239 235 240 238 249 238 240 244 239 242 235 236 237 244 246 245
279 253 247 241 241 245 243 246 254 260 255 248 247 249 252 254 252 253 244 240 235 236 236 237 237 238 241 244 244 247 254 250 240 237 236 234 242 231 232 233 238 243 245
331 291 251 249 248 251 248 244 241 250 262 266 260 266 258 249 252 256 249 243 238 236 236 237 238 237 239 244 246 248 257 260 258 247 247 238 243 236 236 235 239 244 247
339 328 292 251 250 251 251 250 244 242 249 261 271 269 266 249 251 244 234 240 242 241 239 237 239 238 239 244 247 245 252 261 266 258 258 240 239 250 241 237 243 249 251
332 334 328 292 256 248 249 249 249 247 245 248 257 267 265 252 239 230 235 238 242 240 240 242 238 237 240 241 245 245 248 254 257 259 250 243 248 243 248 246 245 246 248